Winfield, KS

4:19 AM CST on December 16, 2019 (GMT -0600)
Strother

Weather History for KWLD - October, 2019

Change the Weather History Date:

Wednesday, October 2, 2019

  Actual Average Record
Temperature  
Mean Temperature 74 °F -  
Max Temperature 89 °F 73 °F 93 °F (2006)
Min Temperature 61 °F 51 °F 39 °F (2003)
Cooling Degree Days 10    
Growing Degree Days 24 (Base 50)    
Moisture  
Dew Point 67 °F    
Average Humidity 85    
Maximum Humidity 100    
Minimum Humidity 57    
Precipitation  
Precipitation 0.47 in - - ()
Sea Level Pressure  
Sea Level Pressure 29.94 in    
Wind  
Wind Speed 11 mph ()    
Max Wind Speed 21 mph    
Max Gust Speed 46 mph    
Visibility 9.0 miles    
Events Fog , Rain , Thunderstorm    
Averages and records for this station are not official NWS values.
T = Trace of Precipitation, MM = Missing Value Source: Averaged Metar Reports

Daily Weather History Graph

Daily Weather History Graph

Search for Another Location

Airport or City:

Astronomy

Oct. 02, 2019 Rise Set
Actual Time 7:24 AM CDT 7:10 PM CDT
Civil Twilight 6:58 AM CDT 7:36 PM CDT
Nautical Twilight 6:28 AM CDT 8:06 PM CDT
Astronomical Twilight 5:57 AM CDT 8:36 PM CDT
Moon 11:45 AM CDT (10/2) 10:11 PM CDT (10/2)
Length of Visible Light 12h 37m
Length of Day
11h 45m
Waxing Crescent, 20% of the Moon is Illuminated
Oct 2
Waxing Crescent
Oct 5
First Quarter
Oct 13
Full
Oct 21
Last Quarter
Oct 27
New

Hourly Weather History & Observations

Time (CDT) Temp. Heat Index Dew Point Humidity Pressure Visibility Wind Dir Wind Speed Gust Speed Precip Events Conditions
12:54 AM 73.0 °F - 66.9 °F 81% 29.87 in 10.0 mi SSE 3.5 mph - N/A   Partly Cloudy
1:54 AM 73.9 °F - 68.0 °F 82% 29.87 in 10.0 mi South 9.2 mph - N/A   Overcast
2:54 AM 75.0 °F - 66.9 °F 76% 29.87 in 10.0 mi South 9.2 mph - N/A   Overcast
3:54 AM 75.0 °F - 66.9 °F 76% 29.86 in 10.0 mi South 10.4 mph - N/A   Overcast
4:54 AM 75.0 °F - 66.9 °F 76% 29.87 in 10.0 mi South 11.5 mph - N/A   Overcast
5:54 AM 73.9 °F - 66.9 °F 79% 29.87 in 10.0 mi South 10.4 mph - N/A   Mostly Cloudy
6:54 AM 73.9 °F - 66.9 °F 79% 29.88 in 10.0 mi South 12.7 mph 21.9 mph N/A   Clear
7:54 AM 73.9 °F - 66.9 °F 79% 29.89 in 10.0 mi South 10.4 mph - N/A   Clear
8:54 AM 77.0 °F - 68.0 °F 74% 29.90 in 10.0 mi SSW 16.1 mph 23.0 mph N/A   Clear
9:54 AM 80.1 °F 82.9 °F 69.1 °F 69% 29.91 in 10.0 mi SSW 17.3 mph 27.6 mph N/A   Clear
10:54 AM 80.1 °F 82.9 °F 69.1 °F 69% 29.91 in 10.0 mi SW 20.7 mph 27.6 mph N/A   Overcast
11:54 AM 84.0 °F 88.4 °F 70.0 °F 63% 29.91 in 10.0 mi SSW 17.3 mph 25.3 mph N/A   Clear
12:54 PM 87.1 °F 92.8 °F 71.1 °F 59% 29.90 in 10.0 mi SSW 17.3 mph 26.5 mph N/A   Partly Cloudy
1:54 PM 86.0 °F 91.5 °F 71.1 °F 61% 29.88 in 10.0 mi South 15.0 mph 25.3 mph N/A   Mostly Cloudy
2:54 PM 86.0 °F 91.5 °F 71.1 °F 61% 29.86 in 10.0 mi SSW 15.0 mph 24.2 mph N/A   Mostly Cloudy
3:54 PM 88.0 °F 95.6 °F 73.0 °F 61% 29.84 in 10.0 mi South 12.7 mph - 0.00 in   Scattered Clouds
4:54 PM 88.0 °F 93.8 °F 71.1 °F 57% 29.83 in 10.0 mi South 15.0 mph 24.2 mph N/A   Clear
5:45 PM 84.9 °F 89.4 °F 70.0 °F 61% 29.88 in 10.0 mi SSW 12.7 mph - N/A Thunderstorm Overcast
5:54 PM 80.1 °F 82.9 °F 69.1 °F 69% 29.87 in 10.0 mi NW 18.4 mph 26.5 mph N/A Thunderstorm Thunderstorm
6:04 PM 73.9 °F - 70.0 °F 87% 29.91 in 1.0 mi WNW 18.4 mph 46.0 mph 0.18 in Rain , Thunderstorm Heavy Thunderstorms and Rain
6:08 PM 72.0 °F - 70.0 °F 93% 29.93 in 0.5 mi NW 15.0 mph 36.8 mph 0.24 in Fog , Rain , Thunderstorm Heavy Thunderstorms and Rain
6:13 PM 72.0 °F - 70.0 °F 93% 29.94 in 0.8 mi WNW 10.4 mph 24.2 mph 0.25 in Rain , Thunderstorm Thunderstorms and Rain
6:16 PM 72.0 °F - 70.0 °F 93% 29.93 in 2.0 mi NNW 9.2 mph 24.2 mph 0.25 in Rain , Thunderstorm Light Thunderstorms and Rain
6:23 PM 72.0 °F - 71.1 °F 97% 29.93 in 9.0 mi North 6.9 mph - 0.25 in Rain , Thunderstorm Light Thunderstorms and Rain
6:36 PM 72.0 °F - 70.0 °F 93% 29.94 in 10.0 mi Variable 6.9 mph - 0.25 in Thunderstorm Thunderstorm
6:44 PM 72.0 °F - 70.0 °F 93% 29.93 in 10.0 mi NE 5.8 mph - 0.25 in Thunderstorm Mostly Cloudy
6:54 PM 72.0 °F - 70.0 °F 93% 29.91 in 10.0 mi North 6.9 mph - 0.25 in   Overcast
7:46 PM 69.1 °F - 68.0 °F 96% 29.96 in 9.0 mi NNW 9.2 mph - 0.09 in Rain , Thunderstorm Light Rain
7:54 PM 69.1 °F - 68.0 °F 96% 29.94 in 10.0 mi NNW 11.5 mph 19.6 mph 0.09 in Thunderstorm Overcast
8:02 PM 68.0 °F - 66.9 °F 96% 29.97 in 10.0 mi North 15.0 mph - N/A Thunderstorm Thunderstorm
8:26 PM 64.9 °F - 64.0 °F 97% 29.99 in 7.0 mi NNW 15.0 mph - 0.08 in Rain , Thunderstorm Light Rain
8:38 PM 64.0 °F - 63.0 °F 96% 30.00 in 6.0 mi North 13.8 mph - 0.11 in Rain , Thunderstorm Thunderstorms and Rain
8:54 PM 64.0 °F - 63.0 °F 96% 29.99 in 10.0 mi North 11.5 mph - 0.11 in Rain , Thunderstorm Light Rain
8:58 PM 64.0 °F - 63.0 °F 96% 30.01 in 10.0 mi North 12.7 mph - 0.00 in Rain , Thunderstorm Light Rain
9:11 PM 64.0 °F - 63.0 °F 96% 30.00 in 9.0 mi NNE 10.4 mph - 0.01 in Rain Light Rain
9:19 PM 63.0 °F - 63.0 °F 100% 30.01 in 10.0 mi North 10.4 mph - 0.02 in Rain Light Rain
9:54 PM 63.0 °F - 62.1 °F 97% 29.98 in 10.0 mi North 11.5 mph 21.9 mph 0.02 in   Overcast
10:12 PM 63.0 °F - 62.1 °F 97% 30.01 in 10.0 mi North 10.4 mph - N/A   Overcast
10:26 PM 63.0 °F - 62.1 °F 97% 30.03 in 10.0 mi NNW 10.4 mph - N/A   Overcast
10:37 PM 62.1 °F - 62.1 °F 100% 30.03 in 10.0 mi North 12.7 mph - N/A   Overcast
10:46 PM 62.1 °F - 61.0 °F 96% 30.02 in 10.0 mi North 11.5 mph - N/A   Overcast
10:54 PM 62.1 °F - 61.0 °F 96% 30.00 in 10.0 mi North 11.5 mph - N/A   Overcast
11:03 PM 62.1 °F - 61.0 °F 96% 30.03 in 10.0 mi North 12.7 mph - N/A   Overcast
11:23 PM 61.0 °F - 60.1 °F 97% 30.04 in 10.0 mi North 13.8 mph - N/A   Overcast
11:35 PM 61.0 °F - 60.1 °F 97% 30.04 in 10.0 mi North 13.8 mph - N/A   Overcast
11:54 PM 61.0 °F - 60.1 °F 97% 30.03 in 10.0 mi North 9.2 mph - N/A   Overcast